Back to catalog

FENGYUN 1C DEB

AlivePO
NORAD 36682·DEBRIS·🇨🇳 China

Launched May 10, 1999 from Taiyuan Satellite Launch Center

Loading…

Next Passes (next 24 hours)

TLE

FreshSource: Space-Track

Epoch: Sep 12, 2026, 02:43 UTC

1 36682U 99025DZC 26255.11339045  .00000734  00000-0  71868-3 0  9993
2 36682  98.4634 131.9528 0231059 266.7623  90.7071 13.70784474651373

Track FENGYUN 1C DEB in real time with AllMySat

Download on the App Store